AAL2332 KCID-KORD

Flight info

Callsign AAL2332
Flight time 0h 42m
Altitude 27000
Route BENNR FYTTE7
Aircraft A319/M-SDE3FGHIRWY/LB1

Departure

Time 2026-04-14 13:24
Airport The Eastern Iowa Airport (KCID)

Arrival

Time 2026-04-14 14:06
Airport Chicago O'Hare International Airport (KORD)
Time Latitude Longitude Altitude Speed Heading
2026-04-14 13:02 41.88831 -91.69966 874 ft 0 kts 314°
2026-04-14 13:15 41.88827 -91.69961 874 ft 4 kts 313°
2026-04-14 13:15 41.88810 -91.69933 874 ft 4 kts 305°
2026-04-14 13:15 41.88796 -91.69902 875 ft 4 kts 287°
2026-04-14 13:15 41.88795 -91.69871 875 ft 4 kts 236°
2026-04-14 13:16 41.88801 -91.69861 875 ft 1 kts 225°
2026-04-14 13:17 41.88800 -91.69861 875 ft 0 kts 225°
2026-04-14 13:18 41.88796 -91.69867 875 ft 1 kts 225°
2026-04-14 13:18 41.88787 -91.69880 875 ft 2 kts 225°
2026-04-14 13:18 41.88769 -91.69904 875 ft 6 kts 225°
2026-04-14 13:18 41.88732 -91.69953 874 ft 9 kts 225°
2026-04-14 13:19 41.88709 -91.70045 874 ft 13 kts 272°
2026-04-14 13:19 41.88653 -91.70147 873 ft 15 kts 204°
2026-04-14 13:19 41.88571 -91.70197 873 ft 15 kts 262°
2026-04-14 13:19 41.88573 -91.70357 872 ft 19 kts 271°
2026-04-14 13:20 41.88575 -91.70550 871 ft 23 kts 271°
2026-04-14 13:20 41.88577 -91.70774 871 ft 25 kts 270°
2026-04-14 13:20 41.88580 -91.70995 872 ft 11 kts 280°
2026-04-14 13:20 41.88595 -91.70983 872 ft 5 kts 100°
2026-04-14 13:21 41.88577 -91.70847 871 ft 22 kts 100°
2026-04-14 13:21 41.88618 -91.70683 871 ft 19 kts
2026-04-14 13:21 41.88698 -91.70778 872 ft 16 kts 320°
2026-04-14 13:21 41.88783 -91.70883 873 ft 17 kts 315°
2026-04-14 13:22 41.88873 -91.71000 874 ft 19 kts 316°
2026-04-14 13:22 41.88967 -91.71122 875 ft 19 kts 316°
2026-04-14 13:22 41.89060 -91.71241 876 ft 18 kts 316°
2026-04-14 13:22 41.89149 -91.71358 877 ft 18 kts 314°
2026-04-14 13:23 41.89116 -91.71474 879 ft 15 kts 197°
2026-04-14 13:23 41.89030 -91.71407 879 ft 16 kts 135°
2026-04-14 13:23 41.88829 -91.71149 876 ft 76 kts 136°
2026-04-14 13:23 41.88288 -91.70454 871 ft 137 kts 137°
2026-04-14 13:24 41.87545 -91.69555 1382 ft 135 kts 142°
2026-04-14 13:24 41.86185 -91.67788 2320 ft 145 kts 143°
2026-04-14 13:24 41.85646 -91.66527 2607 ft 173 kts 107°
2026-04-14 13:25 41.85505 -91.64814 2889 ft 197 kts 95°
2026-04-14 13:25 41.85706 -91.62900 3140 ft 223 kts 69°
2026-04-14 13:26 41.89105 -91.57469 4596 ft 282 kts 40°
2026-04-14 13:26 41.90595 -91.55727 5488 ft 286 kts 39°
2026-04-14 13:26 41.92112 -91.53953 6360 ft 291 kts 39°
2026-04-14 13:26 41.93650 -91.52152 7148 ft 297 kts 38°
2026-04-14 13:27 41.95223 -91.50310 7946 ft 303 kts 38°
2026-04-14 13:27 41.96802 -91.48460 8746 ft 308 kts 38°
2026-04-14 13:27 41.98458 -91.46519 9556 ft 315 kts 37°
2026-04-14 13:27 42.00124 -91.44565 10221 ft 326 kts 37°
2026-04-14 13:28 42.01893 -91.42484 10482 ft 350 kts 37°
2026-04-14 13:28 42.03790 -91.40263 10747 ft 371 kts 37°
2026-04-14 13:28 42.05759 -91.37953 11349 ft 379 kts 38°
2026-04-14 13:28 42.07728 -91.35631 12077 ft 383 kts 38°
2026-04-14 13:29 42.09744 -91.33247 12816 ft 387 kts 38°
2026-04-14 13:29 42.11781 -91.30835 13551 ft 391 kts 38°
2026-04-14 13:29 42.13833 -91.28403 14207 ft 395 kts 38°
2026-04-14 13:29 42.15914 -91.25944 14823 ft 400 kts 38°
2026-04-14 13:30 42.18015 -91.23463 15434 ft 404 kts 38°
2026-04-14 13:30 42.20140 -91.20949 16063 ft 409 kts 38°
2026-04-14 13:30 42.22291 -91.18402 16658 ft 414 kts 38°
2026-04-14 13:30 42.24465 -91.15823 17257 ft 419 kts 38°
2026-04-14 13:31 42.26667 -91.13204 17851 ft 423 kts 38°
2026-04-14 13:31 42.28885 -91.10558 18401 ft 428 kts 38°
2026-04-14 13:31 42.31124 -91.07877 18913 ft 432 kts 38°
2026-04-14 13:31 42.32622 -91.06083 19254 ft 435 kts 38°
2026-04-14 13:32 42.34902 -91.03356 19764 ft 440 kts 38°
2026-04-14 13:32 42.37203 -91.00605 20277 ft 444 kts 38°
2026-04-14 13:32 42.39533 -90.97820 20790 ft 449 kts 38°
2026-04-14 13:32 42.41885 -90.95006 21292 ft 453 kts 38°
2026-04-14 13:33 42.44253 -90.92166 21798 ft 457 kts 38°
2026-04-14 13:33 42.46626 -90.89277 22270 ft 462 kts 41°
2026-04-14 13:33 42.48746 -90.85970 22731 ft 469 kts 52°
2026-04-14 13:33 42.50456 -90.82181 23188 ft 474 kts 63°
2026-04-14 13:34 42.52411 -90.73619 23958 ft 480 kts 84°
2026-04-14 13:34 42.52577 -90.69108 24337 ft 480 kts 94°
2026-04-14 13:34 42.52540 -90.64575 24707 ft 483 kts 94°
2026-04-14 13:35 42.52507 -90.60004 25074 ft 486 kts 93°
2026-04-14 13:35 42.52479 -90.55406 25437 ft 489 kts 93°
2026-04-14 13:35 42.52451 -90.50789 25809 ft 492 kts 93°
2026-04-14 13:35 42.52422 -90.46141 26175 ft 494 kts 93°
2026-04-14 13:36 42.52391 -90.41471 26554 ft 497 kts 93°
2026-04-14 13:36 42.52351 -90.36778 26789 ft 499 kts 94°
2026-04-14 13:36 42.52305 -90.32070 26863 ft 502 kts 94°
2026-04-14 13:36 42.52261 -90.27383 26859 ft 503 kts 93°
2026-04-14 13:37 42.52224 -90.22645 26857 ft 503 kts 93°
2026-04-14 13:37 42.52193 -90.17901 26855 ft 503 kts 93°
2026-04-14 13:37 42.52163 -90.13158 26852 ft 503 kts 93°
2026-04-14 13:37 42.52130 -90.08410 26855 ft 504 kts 93°
2026-04-14 13:38 42.52097 -90.03662 26853 ft 504 kts 93°
2026-04-14 13:38 42.52062 -89.98919 26855 ft 504 kts 93°
2026-04-14 13:38 42.52025 -89.94166 26858 ft 503 kts 93°
2026-04-14 13:38 42.51981 -89.89419 26862 ft 503 kts 94°
2026-04-14 13:39 42.51928 -89.84674 26868 ft 503 kts 94°
2026-04-14 13:39 42.51871 -89.79928 26875 ft 503 kts 94°
2026-04-14 13:39 42.51567 -89.75239 26811 ft 498 kts 102°
2026-04-14 13:39 42.51030 -89.70592 25658 ft 502 kts 103°
2026-04-14 13:40 42.50449 -89.65835 24374 ft 513 kts 103°
2026-04-14 13:40 42.49857 -89.61100 23613 ft 507 kts 103°
2026-04-14 13:40 42.49268 -89.56411 22792 ft 502 kts 103°
2026-04-14 13:40 42.48687 -89.51768 22016 ft 497 kts 102°
2026-04-14 13:41 42.48117 -89.47192 21483 ft 487 kts 102°
2026-04-14 13:41 42.47568 -89.42753 21347 ft 469 kts 102°
2026-04-14 13:41 42.47047 -89.38519 21217 ft 454 kts 102°
2026-04-14 13:41 42.46538 -89.34350 21070 ft 442 kts 102°
2026-04-14 13:42 42.46043 -89.30279 20729 ft 435 kts 102°
2026-04-14 13:42 42.45549 -89.26253 20307 ft 431 kts 102°
2026-04-14 13:42 42.45057 -89.22259 19858 ft 428 kts 102°
2026-04-14 13:42 42.44564 -89.18297 19401 ft 426 kts 102°
2026-04-14 13:43 42.44072 -89.14364 18957 ft 423 kts 102°
2026-04-14 13:43 42.43579 -89.10443 18514 ft 420 kts 102°
2026-04-14 13:43 42.43086 -89.06578 18271 ft 411 kts 102°
2026-04-14 13:43 42.42611 -89.02845 17927 ft 405 kts 102°
2026-04-14 13:44 42.42137 -88.99109 17509 ft 401 kts 102°
2026-04-14 13:44 42.41665 -88.95392 17074 ft 398 kts 101°
2026-04-14 13:44 42.41199 -88.91708 16644 ft 395 kts 101°
2026-04-14 13:44 42.40738 -88.88068 16223 ft 393 kts 101°
2026-04-14 13:45 42.40279 -88.84427 15801 ft 390 kts 101°
2026-04-14 13:45 42.39820 -88.80820 15377 ft 387 kts 101°
2026-04-14 13:45 42.39361 -88.77239 14992 ft 384 kts 101°
2026-04-14 13:45 42.38903 -88.73696 14601 ft 382 kts 101°
2026-04-14 13:46 42.38446 -88.70193 14449 ft 372 kts 101°
2026-04-14 13:46 42.38010 -88.66831 14330 ft 363 kts 101°
2026-04-14 13:46 42.37579 -88.63502 14136 ft 356 kts 101°
2026-04-14 13:46 42.37149 -88.60207 13857 ft 353 kts 101°
2026-04-14 13:47 42.36724 -88.56951 13526 ft 351 kts 101°
2026-04-14 13:47 42.36297 -88.53704 13162 ft 349 kts 101°
2026-04-14 13:47 42.35870 -88.50472 12799 ft 348 kts 101°
2026-04-14 13:47 42.35445 -88.47259 12429 ft 346 kts 101°
2026-04-14 13:48 42.35023 -88.44053 12044 ft 345 kts 101°
2026-04-14 13:48 42.34524 -88.40896 11673 ft 343 kts 110°
2026-04-14 13:48 42.33564 -88.37972 11311 ft 337 kts 125°
2026-04-14 13:48 42.32235 -88.35401 11016 ft 331 kts 130°
2026-04-14 13:49 42.30903 -88.32925 10977 ft 329 kts 130°
2026-04-14 13:49 42.29543 -88.30433 10986 ft 329 kts 132°
2026-04-14 13:49 42.28110 -88.28032 10984 ft 328 kts 135°
2026-04-14 13:49 42.26634 -88.25688 10662 ft 328 kts 136°
2026-04-14 13:50 42.25148 -88.23383 10583 ft 325 kts 136°
2026-04-14 13:50 42.23657 -88.21077 10515 ft 325 kts 136°
2026-04-14 13:50 42.22173 -88.18771 10452 ft 327 kts 135°
2026-04-14 13:50 42.20660 -88.16485 10377 ft 322 kts 142°
2026-04-14 13:51 42.18922 -88.14649 10152 ft 313 kts 155°
2026-04-14 13:51 42.16988 -88.13413 9927 ft 304 kts 167°
2026-04-14 13:51 42.15001 -88.12412 9820 ft 304 kts 167°
2026-04-14 13:51 42.13026 -88.11404 9704 ft 304 kts 166°
2026-04-14 13:52 42.11054 -88.10393 9571 ft 303 kts 166°
2026-04-14 13:52 42.09082 -88.09379 9445 ft 303 kts 166°
2026-04-14 13:52 42.07115 -88.08370 9296 ft 303 kts 166°
2026-04-14 13:52 42.05143 -88.07363 9169 ft 303 kts 166°
2026-04-14 13:53 42.03164 -88.06353 9037 ft 302 kts 166°
2026-04-14 13:53 42.01208 -88.05355 8940 ft 301 kts 166°
2026-04-14 13:53 41.99250 -88.04358 9006 ft 302 kts 166°
2026-04-14 13:53 41.97304 -88.03369 9010 ft 302 kts 166°
2026-04-14 13:54 41.95332 -88.02368 9004 ft 302 kts 166°
2026-04-14 13:54 41.93372 -88.01371 9008 ft 302 kts 166°
2026-04-14 13:54 41.91441 -88.00200 9007 ft 308 kts 153°
2026-04-14 13:54 41.89826 -87.98259 9005 ft 318 kts 131°
2026-04-14 13:55 41.88773 -87.95634 9005 ft 324 kts 109°
2026-04-14 13:55 41.88442 -87.92640 9009 ft 326 kts 90°
2026-04-14 13:55 41.88449 -87.89608 9008 ft 326 kts 89°
2026-04-14 13:55 41.88449 -87.86552 8971 ft 327 kts 90°
2026-04-14 13:56 41.88444 -87.83504 8738 ft 324 kts 90°
2026-04-14 13:56 41.88437 -87.80508 8373 ft 321 kts 90°
2026-04-14 13:56 41.88433 -87.77510 7929 ft 321 kts 90°
2026-04-14 13:56 41.88431 -87.74571 7490 ft 314 kts 89°
2026-04-14 13:57 41.88429 -87.71672 7098 ft 307 kts 90°
2026-04-14 13:57 41.88426 -87.68810 6740 ft 305 kts 90°
2026-04-14 13:57 41.88421 -87.65974 6387 ft 303 kts 90°
2026-04-14 13:57 41.88415 -87.63180 6007 ft 294 kts 90°
2026-04-14 13:58 41.88407 -87.60492 5633 ft 284 kts 90°
2026-04-14 13:58 41.88398 -87.57879 5275 ft 277 kts 91°
2026-04-14 13:58 41.88434 -87.55301 4904 ft 276 kts 82°
2026-04-14 13:58 41.89105 -87.52937 4548 ft 271 kts 51°
2026-04-14 13:59 41.90488 -87.51326 4166 ft 260 kts 20°
2026-04-14 13:59 41.92160 -87.50625 3984 ft 243 kts
2026-04-14 13:59 41.93796 -87.50298 3990 ft 234 kts 360°
2026-04-14 13:59 41.95406 -87.50092 3998 ft 228 kts 348°
2026-04-14 14:00 41.96813 -87.50776 4009 ft 210 kts 314°
2026-04-14 14:00 41.97595 -87.52329 3999 ft 199 kts 280°
2026-04-14 14:00 41.97666 -87.54138 4005 ft 197 kts 264°
2026-04-14 14:00 41.97257 -87.55883 3996 ft 198 kts 245°
2026-04-14 14:01 41.96748 -87.57589 3911 ft 196 kts 256°
2026-04-14 14:01 41.96388 -87.59346 3995 ft 196 kts 257°
2026-04-14 14:01 41.96248 -87.61170 4002 ft 196 kts 268°
2026-04-14 14:01 41.96276 -87.63003 4014 ft 197 kts 271°
2026-04-14 14:02 41.96333 -87.64838 4015 ft 197 kts 271°
2026-04-14 14:02 41.96388 -87.66687 4019 ft 197 kts 271°
2026-04-14 14:02 41.96434 -87.68534 3943 ft 199 kts 270°
2026-04-14 14:02 41.96470 -87.70357 3642 ft 190 kts 270°
2026-04-14 14:03 41.96500 -87.72090 3371 ft 180 kts 270°
2026-04-14 14:03 41.96525 -87.73725 3154 ft 170 kts 270°
2026-04-14 14:03 41.96547 -87.75278 2886 ft 163 kts 269°
2026-04-14 14:03 41.96566 -87.76778 2648 ft 159 kts 268°
2026-04-14 14:04 41.96582 -87.78234 2423 ft 153 kts 266°
2026-04-14 14:04 41.96590 -87.79604 2207 ft 137 kts 265°
2026-04-14 14:04 41.96590 -87.80857 2012 ft 131 kts 264°
2026-04-14 14:04 41.96589 -87.82049 1822 ft 129 kts 263°
2026-04-14 14:05 41.96588 -87.83246 1624 ft 127 kts 263°
2026-04-14 14:05 41.96585 -87.84438 1412 ft 129 kts 262°
2026-04-14 14:05 41.96582 -87.85629 1270 ft 127 kts 261°
2026-04-14 14:05 41.96582 -87.86825 1077 ft 130 kts 260°
2026-04-14 14:06 41.96582 -87.88045 889 ft 131 kts 261°
2026-04-14 14:06 41.96577 -87.89274 726 ft 131 kts 265°
2026-04-14 14:06 41.96567 -87.90445 670 ft 111 kts 265°
2026-04-14 14:06 41.96570 -87.91200 669 ft 45 kts 275°
2026-04-14 14:07 41.96646 -87.91454 669 ft 4 kts 298°
2026-04-14 14:07 41.96663 -87.91485 669 ft 6 kts 317°
2026-04-14 14:07 41.96723 -87.91481 668 ft 11 kts 36°
2026-04-14 14:07 41.96738 -87.91354 669 ft 21 kts 90°
2026-04-14 14:08 41.96738 -87.91149 669 ft 22 kts 89°
2026-04-14 14:08 41.96739 -87.90937 669 ft 23 kts 90°
2026-04-14 14:08 41.96739 -87.90721 669 ft 23 kts 90°
2026-04-14 14:08 41.96739 -87.90503 668 ft 24 kts 90°
2026-04-14 14:09 41.96738 -87.90277 669 ft 24 kts 90°
2026-04-14 14:09 41.96740 -87.90055 669 ft 24 kts 89°
2026-04-14 14:09 41.96740 -87.89829 670 ft 24 kts 90°
2026-04-14 14:09 41.96740 -87.89603 669 ft 23 kts 89°
2026-04-14 14:10 41.96760 -87.89452 668 ft 15 kts 42°
2026-04-14 14:10 41.96865 -87.89437 670 ft 18 kts 360°
2026-04-14 14:10 41.96998 -87.89436 670 ft 20 kts
2026-04-14 14:10 41.97153 -87.89438 669 ft 26 kts 360°
2026-04-14 14:11 41.97340 -87.89432 669 ft 26 kts
2026-04-14 14:11 41.97485 -87.89493 669 ft 22 kts 292°
2026-04-14 14:11 41.97541 -87.89688 669 ft 23 kts 289°
2026-04-14 14:11 41.97588 -87.89868 669 ft 16 kts 289°
2026-04-14 14:12 41.97610 -87.89963 669 ft 10 kts 236°
2026-04-14 14:12 41.97575 -87.89985 669 ft 2 kts 200°
2026-04-14 14:12 41.97564 -87.89992 669 ft 0 kts 202°